GW5387 Weather Reports


time (UTC)temp
C
wind
direction
speed
KPH
gust
KPH
rain 1hr
cm
rain 24hr
cm
rain mn
cm
humidity
%
barometer
mb
20260905195822 28 97 3.2 8.0 0.00 0.00 0.00 29 1023.0
20260905195322 28 83 4.8 8.0 0.00 0.00 0.00 28 1023.0
20260905194823 28 337 1.6 6.4 0.00 0.00 0.00 28 1023.0
20260905194323 28 127 4.8 8.0 0.00 0.00 0.00 27 1023.0
20260905193822 29 79 6.4 11.3 0.00 0.00 0.00 28 1023.0
20260905193322 30 84 8.0 14.5 0.00 0.00 0.00 28 1023.0
20260905192822 30 104 3.2 6.4 0.00 0.00 0.00 28 1023.0
20260905192323 30 109 6.4 12.9 0.00 0.00 0.00 26 1023.0
20260905191823 30 67 1.6 4.8 0.00 0.00 0.00 27 1023.0
20260905191322 30 295 1.6 6.4 0.00 0.00 0.00 27 1023.0
20260905190824 30 2 4.8 9.7 0.00 0.00 0.00 27 1023.0
20260905190322 30 51 4.8 11.3 0.00 0.00 0.00 26 1023.0
20260905185824 30 92 6.4 9.7 0.00 0.00 0.00 27 1023.0
20260905185323 30 351 4.8 9.7 0.00 0.00 0.00 28 1023.0
20260905184823 30 42 4.8 8.0 0.00 0.00 0.00 27 1024.0
20260905184322 30 37 1.6 4.8 0.00 0.00 0.00 27 1024.0
20260905183822 30 58 4.8 9.7 0.00 0.00 0.00 26 1024.0
20260905183323 29 92 4.8 8.0 0.00 0.00 0.00 27 1024.0
20260905182822 28 97 3.2 8.0 0.00 0.00 0.00 28 1024.0
20260905182322 28 92 6.4 11.3 0.00 0.00 0.00 28 1024.0
20260905181822 28 91 4.8 9.7 0.00 0.00 0.00 28 1024.0
20260905181322 28 9 6.4 14.5 0.00 0.00 0.00 28 1024.0
20260905180822 28 176 1.6 3.2 0.00 0.00 0.00 28 1024.0
20260905180323 28 119 3.2 6.4 0.00 0.00 0.00 28 1024.0
20260905175822 28 94 1.6 4.8 0.00 0.00 0.00 29 1024.0
20260905175322 27 95 3.2 4.8 0.00 0.00 0.00 30 1024.0
20260905174822 27 255 3.2 4.8 0.00 0.00 0.00 30 1024.0
20260905174322 28 119 4.8 8.0 0.00 0.00 0.00 29 1024.0
20260905173822 28 99 4.8 8.0 0.00 0.00 0.00 28 1024.0
20260905173323 28 96 4.8 11.3 0.00 0.00 0.00 29 1024.0
20260905172822 28 65 4.8 9.7 0.00 0.00 0.00 28 1024.0
20260905172323 28 79 4.8 8.0 0.00 0.00 0.00 29 1024.0
20260905171822 28 67 4.8 8.0 0.00 0.00 0.00 29 1024.0
20260905171323 28 113 6.4 9.7 0.00 0.00 0.00 29 1024.0
20260905170822 28 84 4.8 9.7 0.00 0.00 0.00 29 1024.0
20260905170322 27 6 4.8 12.9 0.00 0.00 0.00 29 1024.0
20260905165822 27 349 6.4 9.7 0.00 0.00 0.00 29 1024.0
20260905165322 27 91 4.8 9.7 0.00 0.00 0.00 29 1024.0
20260905164823 27 144 3.2 4.8 0.00 0.00 0.00 30 1024.0
20260905164322 27 128 3.2 11.3 0.00 0.00 0.00 30 1024.0
20260905163822 27 95 4.8 9.7 0.00 0.00 0.00 30 1024.0
20260905163322 27 329 3.2 8.0 0.00 0.00 0.00 30 1024.0
20260905162822 26 342 4.8 8.0 0.00 0.00 0.00 31 1024.0
20260905162322 26 360 3.2 4.8 0.00 0.00 0.00 32 1024.0
20260905161822 26 45 4.8 9.7 0.00 0.00 0.00 33 1024.0
20260905161322 26 84 3.2 6.4 0.00 0.00 0.00 33 1024.0
20260905160822 25 81 3.2 6.4 0.00 0.00 0.00 34 1024.0
20260905160322 25 352 3.2 8.0 0.00 0.00 0.00 34 1024.0
20260905155822 25 29 4.8 12.9 0.00 0.00 0.00 34 1024.0
20260905155324 25 334 4.8 8.0 0.00 0.00 0.00 34 1024.0
20260905154822 25 359 6.4 11.3 0.00 0.00 0.00 32 1024.0
20260905154322 25 309 3.2 6.4 0.00 0.00 0.00 34 1024.0
20260905153822 25 357 4.8 9.7 0.00 0.00 0.00 34 1024.0
20260905153322 25 2 6.4 9.7 0.00 0.00 0.00 35 1024.0
20260905152822 25 358 6.4 8.0 0.00 0.00 0.00 34 1024.0
20260905152324 25 340 4.8 8.0 0.00 0.00 0.00 35 1024.0
20260905151823 25 355 3.2 9.7 0.00 0.00 0.00 35 1024.0
20260905151322 24 350 4.8 6.4 0.00 0.00 0.00 36 1024.0
20260905150823 24 354 6.4 11.3 0.00 0.00 0.00 37 1024.0
20260905150323 24 300 3.2 6.4 0.00 0.00 0.00 39 1024.0
20260905145823 24 339 4.8 9.7 0.00 0.00 0.00 37 1024.0
20260905145322 24 359 1.6 6.4 0.00 0.00 0.00 37 1024.0
20260905144826 23 329 4.8 8.0 0.00 0.00 0.00 38 1024.0
20260905144323 23 11 3.2 8.0 0.00 0.00 0.00 41 1024.0
20260905143822 23 35 3.2 6.4 0.00 0.00 0.00 41 1024.0
20260905143322 22 331 1.6 6.4 0.00 0.00 0.00 43 1024.0
20260905142823 22 360 3.2 6.4 0.00 0.00 0.00 43 1024.0
20260905142322 22 4 4.8 6.4 0.00 0.00 0.00 43 1024.0
20260905141822 22 351 4.8 6.4 0.00 0.00 0.00 43 1024.0
20260905141322 21 360 3.2 6.4 0.00 0.00 0.00 44 1024.0
20260905140823 21 360 1.6 3.2 0.00 0.00 0.00 44 1024.0
20260905140322 20 326 1.6 4.8 0.00 0.00 0.00 47 1024.0
20260905135822 20 308 1.6 3.2 0.00 0.00 0.00 46 1024.0
20260905135323 20 334 1.6 3.2 0.00 0.00 0.00 47 1024.0
20260905134822 19 24 3.2 6.4 0.00 0.00 0.00 44 1024.0
20260905134322 19 35 1.6 3.2 0.00 0.00 0.00 47 1024.0
20260905133822 19 217 3.2 3.2 0.00 0.00 0.00 49 1024.0
20260905133322 19 67 0.0 3.2 0.00 0.00 0.00 47 1024.0
20260905132823 19 360 0.0 0.0 0.00 0.00 0.00 46 1024.0
20260905132322 19 44 3.2 4.8 0.00 0.00 0.00 46 1024.0
20260905131822 20 124 3.2 6.4 0.00 0.00 0.00 47 1024.0
20260905131324 19 234 1.6 3.2 0.00 0.00 0.00 43 1023.0
20260905130822 18 275 1.6 4.8 0.00 0.00 0.00 51 1023.0
20260905130322 18 152 4.8 8.0 0.00 0.00 0.00 49 1023.0
20260905125822 18 30 3.2 4.8 0.00 0.00 0.00 52 1023.0
20260905125322 17 324 1.6 6.4 0.00 0.00 0.00 50 1023.0
20260905124822 17 18 4.8 8.0 0.00 0.00 0.00 53 1023.0
20260905124323 17 23 6.4 11.3 0.00 0.00 0.00 54 1023.0
20260905123822 17 348 3.2 6.4 0.00 0.00 0.00 55 1023.0
20260905123322 18 29 3.2 6.4 0.00 0.00 0.00 54 1023.0
20260905122823 18 354 3.2 9.7 0.00 0.00 0.00 48 1023.0
20260905122322 17 316 3.2 4.8 0.00 0.00 0.00 50 1023.0
20260905121822 16 260 6.4 14.5 0.00 0.00 0.00 56 1023.0
20260905121322 14 285 4.8 6.4 0.00 0.00 0.00 59 1023.0
20260905120823 13 36 3.2 6.4 0.00 0.00 0.00 72 1023.0
20260905120322 13 35 6.4 9.7 0.00 0.00 0.00 71 1023.0
20260905115822 13 305 4.8 8.0 0.00 0.00 0.00 75 1023.0
20260905115322 13 257 3.2 6.4 0.00 0.00 0.00 71 1023.0
20260905114822 13 21 3.2 4.8 0.00 0.00 0.00 75 1023.0
20260905114322 12 63 9.7 14.5 0.00 0.00 0.00 73 1023.0
20260905113825 11 87 1.6 3.2 0.00 0.00 0.00 79 1023.0
20260905113322 12 342 3.2 6.4 0.00 0.00 0.00 80 1023.0
20260905112822 12 44 1.6 4.8 0.00 0.00 0.00 77 1023.0
20260905112322 12 276 3.2 6.4 0.00 0.00 0.00 77 1023.0
20260905111823 12 191 3.2 6.4 0.00 0.00 0.00 79 1023.0
20260905111322 11 334 3.2 4.8 0.00 0.00 0.00 78 1023.0
20260905110823 11 338 3.2 6.4 0.00 0.00 0.00 79 1023.0
20260905110322 11 22 4.8 9.7 0.00 0.00 0.00 79 1023.0
20260905105823 11 36 1.6 3.2 0.00 0.00 0.00 79 1023.0
20260905105322 11 4 3.2 6.4 0.00 0.00 0.00 78 1023.0
20260905104823 12 31 3.2 6.4 0.00 0.00 0.00 78 1023.0
20260905104322 12 357 6.4 8.0 0.00 0.00 0.00 77 1023.0
20260905103821 12 354 3.2 4.8 0.00 0.00 0.00 75 1023.0
20260905103322 12 322 1.6 1.6 0.00 0.00 0.00 75 1023.0
20260905102822 12 309 3.2 3.2 0.00 0.00 0.00 76 1023.0
20260905102323 12 358 1.6 3.2 0.00 0.00 0.00 76 1023.0
20260905101822 12 356 1.6 3.2 0.00 0.00 0.00 76 1023.0
20260905101322 12 352 1.6 3.2 0.00 0.00 0.00 76 1023.0
20260905100822 12 348 1.6 3.2 0.00 0.00 0.00 76 1023.0
20260905100322 12 343 3.2 4.8 0.00 0.00 0.00 75 1023.0
20260905095822 12 1 1.6 3.2 0.00 0.00 0.00 76 1023.0
20260905095322 12 342 3.2 4.8 0.00 0.00 0.00 74 1023.0
20260905094823 12 360 1.6 3.2 0.00 0.00 0.00 76 1023.0
20260905094322 12 357 3.2 6.4 0.00 0.00 0.00 76 1023.0
20260905093823 12 350 3.2 3.2 0.00 0.00 0.00 76 1023.0
20260905093323 13 10 3.2 4.8 0.00 0.00 0.00 76 1023.0
20260905092822 13 7 3.2 4.8 0.00 0.00 0.00 74 1023.0
20260905092322 13 304 3.2 3.2 0.00 0.00 0.00 76 1023.0
20260905091822 13 303 3.2 3.2 0.00 0.00 0.00 74 1023.0
20260905091322 13 301 1.6 3.2 0.00 0.00 0.00 75 1023.0
20260905090823 13 296 1.6 3.2 0.00 0.00 0.00 74 1023.0
20260905090322 13 312 1.6 3.2 0.00 0.00 0.00 74 1023.0
20260905085822 13 19 0.0 0.0 0.00 0.00 0.00 73 1023.0
20260905085322 13 293 0.0 1.6 0.00 0.00 0.00 72 1023.0
20260905084822 14 349 1.6 3.2 0.00 0.00 0.00 72 1023.0
20260905084324 14 325 0.0 1.6 0.00 0.00 0.00 74 1023.0
20260905083828 14 281 1.6 3.2 0.00 0.00 0.00 75 1023.0
20260905083322 14 287 0.0 1.6 0.00 0.00 0.00 70 1023.0
20260905082822 14 291 0.0 1.6 0.00 0.00 0.00 69 1023.0
20260905082322 14 308 1.6 3.2 0.00 0.00 0.00 70 1023.0
20260905081823 15 308 0.0 1.6 0.00 0.00 0.00 70 1023.0
20260905081322 15 313 1.6 3.2 0.00 0.00 0.00 69 1023.0
20260905080825 15 34 3.2 3.2 0.00 0.00 0.00 67 1023.0
20260905080322 15 322 0.0 1.6 0.00 0.00 0.00 69 1023.0
20260905075822 15 295 1.6 3.2 0.00 0.00 0.00 68 1023.0
20260905075323 15 31 0.0 1.6 0.00 0.00 0.00 67 1023.0
20260905074822 15 332 0.0 1.6 0.00 0.00 0.00 67 1023.0
20260905074322 15 314 3.2 4.8 0.00 0.00 0.00 67 1023.0
20260905073822 16 328 1.6 3.2 0.00 0.00 0.00 68 1023.0
20260905073323 16 50 0.0 3.2 0.00 0.00 0.00 68 1023.0
20260905072822 16 281 1.6 4.8 0.00 0.00 0.00 66 1023.0
20260905072323 16 228 1.6 3.2 0.00 0.00 0.00 67 1023.0
20260905071822 16 206 3.2 6.4 0.00 0.00 0.00 63 1023.0
20260905071323 16 360 0.0 0.0 0.00 0.00 0.00 64 1023.0
20260905070822 17 96 0.0 1.6 0.00 0.00 0.00 63 1023.0
20260905070322 17 360 0.0 0.0 0.00 0.00 0.00 62 1023.0
20260905065822 17 291 1.6 3.2 0.00 0.00 0.00 62 1023.0
20260905065322 17 266 0.0 1.6 0.00 0.00 0.00 62 1023.0
20260905064822 17 218 3.2 6.4 0.00 0.00 0.00 61 1023.0
20260905064322 17 156 1.6 3.2 0.00 0.00 0.00 60 1023.0
20260905063823 17 211 3.2 6.4 0.00 0.00 0.00 60 1023.0
20260905063323 16 216 3.2 4.8 0.00 0.00 0.00 63 1023.0
20260905062822 16 278 4.8 6.4 0.00 0.00 0.00 66 1023.0
20260905062322 16 278 3.2 6.4 0.00 0.00 0.00 63 1023.0
20260905061822 17 278 4.8 4.8 0.00 0.00 0.00 60 1023.0
20260905061322 16 279 3.2 4.8 0.00 0.00 0.00 59 1023.0
20260905060822 16 247 1.6 3.2 0.00 0.00 0.00 61 1023.0
20260905060322 16 289 3.2 4.8 0.00 0.00 0.00 58 1023.0
20260905055822 16 292 3.2 3.2 0.00 0.00 0.03 59 1023.0
20260905055323 16 291 3.2 4.8 0.00 0.00 0.03 61 1023.0
20260905054822 17 281 6.4 6.4 0.00 0.00 0.03 61 1023.0
20260905054325 17 287 3.2 4.8 0.00 0.00 0.03 56 1023.0
20260905053822 17 290 1.6 3.2 0.00 0.00 0.03 56 1023.0
20260905053322 18 306 3.2 4.8 0.00 0.00 0.03 51 1023.0
20260905052823 18 281 4.8 6.4 0.00 0.00 0.03 53 1023.0
20260905052322 18 302 3.2 4.8 0.00 0.00 0.03 54 1023.0
20260905051822 19 64 3.2 4.8 0.00 0.00 0.03 52 1023.0
20260905051322 20 71 1.6 3.2 0.00 0.00 0.03 49 1023.0
20260905050822 20 212 3.2 4.8 0.00 0.00 0.03 49 1023.0
20260905050323 19 204 1.6 3.2 0.00 0.00 0.03 49 1023.0
20260905045822 19 189 3.2 4.8 0.00 0.00 0.03 50 1023.0
20260905045324 18 210 6.4 8.0 0.00 0.00 0.03 51 1023.0
20260905044822 18 186 1.6 3.2 0.00 0.00 0.03 53 1023.0
20260905044322 17 254 1.6 4.8 0.00 0.00 0.03 57 1023.0
20260905043823 18 284 3.2 4.8 0.00 0.00 0.03 58 1023.0
20260905043322 18 287 6.4 6.4 0.00 0.00 0.03 57 1023.0
20260905042823 20 287 3.2 6.4 0.00 0.00 0.03 50 1023.0
20260905042323 20 228 1.6 3.2 0.00 0.00 0.03 46 1023.0
20260905041822 20 197 1.6 3.2 0.00 0.00 0.03 45 1023.0
20260905041323 20 156 3.2 4.8 0.00 0.00 0.03 45 1023.0
20260905040822 20 162 4.8 4.8 0.00 0.00 0.03 45 1023.0
20260905040322 20 215 4.8 6.4 0.00 0.00 0.03 45 1023.0
20260905035823 20 220 4.8 6.4 0.00 0.00 0.03 45 1023.0
20260905035322 21 235 4.8 6.4 0.00 0.00 0.03 45 1023.0
20260905034823 21 236 4.8 6.4 0.00 0.00 0.03 44 1023.0
20260905034322 21 241 4.8 6.4 0.00 0.00 0.03 44 1023.0
20260905033822 21 189 3.2 4.8 0.00 0.00 0.03 44 1023.0
20260905033322 21 200 3.2 3.2 0.00 0.00 0.03 44 1023.0
20260905032822 21 192 3.2 3.2 0.00 0.00 0.03 43 1023.0
20260905032324 21 166 4.8 8.0 0.00 0.00 0.03 42 1023.0
20260905031822 21 157 4.8 4.8 0.00 0.00 0.03 43 1023.0
20260905031322 21 225 1.6 3.2 0.00 0.00 0.03 46 1023.0
20260905030822 21 233 1.6 3.2 0.00 0.00 0.03 43 1022.0
20260905030323 22 210 1.6 3.2 0.00 0.00 0.03 42 1022.0
20260905025822 22 205 3.2 3.2 0.00 0.00 0.03 41 1022.0
20260905025323 22 226 3.2 4.8 0.00 0.00 0.03 41 1022.0
20260905024822 23 220 4.8 6.4 0.00 0.00 0.03 40 1022.0
20260905024322 23 209 1.6 3.2 0.00 0.00 0.03 38 1022.0
20260905023822 23 172 3.2 3.2 0.00 0.00 0.03 37 1022.0
20260905023323 23 148 3.2 4.8 0.00 0.00 0.03 37 1022.0
20260905022823 23 131 0.0 1.6 0.00 0.00 0.03 37 1022.0
20260905022322 23 360 0.0 0.0 0.00 0.00 0.03 36 1022.0
20260905021822 24 202 0.0 0.0 0.00 0.00 0.03 36 1022.0
20260905021322 24 164 0.0 3.2 0.00 0.00 0.03 36 1022.0
20260905020822 24 188 1.6 3.2 0.00 0.00 0.03 36 1022.0
20260905015847 25 183 4.8 8.0 0.00 0.00 0.03 35 1022.0
20260905015322 25 204 4.8 4.8 0.00 0.00 0.03 34 1022.0
20260905014822 25 179 6.4 9.7 0.00 0.00 0.03 33 1022.0
20260905014322 25 216 4.8 6.4 0.00 0.00 0.03 34 1022.0
20260905013822 25 191 4.8 6.4 0.00 0.00 0.03 33 1022.0
20260905013322 25 173 6.4 9.7 0.00 0.00 0.03 32 1022.0
20260905012823 26 171 9.7 14.5 0.00 0.00 0.03 31 1022.0
20260905012322 26 182 6.4 12.9 0.00 0.00 0.03 31 1022.0
20260905011822 26 193 8.0 11.3 0.00 0.00 0.03 32 1021.0
20260905011323 26 210 9.7 17.7 0.00 0.00 0.03 32 1021.0
20260905010822 26 198 9.7 12.9 0.00 0.00 0.03 31 1021.0
20260905010323 26 170 11.3 14.5 0.00 0.00 0.03 30 1021.0
20260905005822 26 162 11.3 17.7 0.00 0.00 0.03 30 1021.0
20260905005323 27 175 8.0 11.3 0.00 0.00 0.03 30 1021.0
20260905004822 27 179 11.3 14.5 0.00 0.00 0.03 30 1021.0
20260905004322 27 177 9.7 12.9 0.00 0.00 0.03 30 1021.0
20260905003822 27 185 6.4 9.7 0.00 0.00 0.03 29 1021.0
20260905003322 27 189 11.3 16.1 0.00 0.00 0.03 29 1021.0
20260905002822 27 175 12.9 16.1 0.00 0.00 0.03 29 1021.0
20260905002323 28 193 12.9 16.1 0.00 0.00 0.03 28 1021.0
20260905001822 28 178 11.3 17.7 0.00 0.00 0.03 29 1021.0
20260905001322 27 184 8.0 12.9 0.00 0.00 0.03 29 1021.0
20260905000822 27 170 11.3 16.1 0.00 0.00 0.03 28 1021.0
20260905000325 27 199 8.0 12.9 0.00 0.00 0.03 30 1021.0
20260904235822 27 183 8.0 11.3 0.00 0.00 0.03 30 1021.0
20260904235323 27 163 11.3 14.5 0.00 0.00 0.03 29 1021.0
20260904234822 27 177 9.7 14.5 0.00 0.00 0.03 30 1021.0
20260904234322 27 174 8.0 12.9 0.00 0.00 0.03 30 1021.0
20260904233823 27 171 8.0 11.3 0.00 0.00 0.03 30 1021.0
20260904233322 27 161 6.4 9.7 0.00 0.00 0.03 29 1021.0
20260904232822 27 178 4.8 6.4 0.00 0.00 0.03 29 1021.0
20260904232322 27 190 9.7 14.5 0.00 0.00 0.03 28 1021.0
20260904231823 27 162 11.3 12.9 0.00 0.00 0.03 29 1021.0
20260904231323 27 165 6.4 9.7 0.00 0.00 0.03 30 1021.0
20260904230822 27 178 9.7 14.5 0.00 0.00 0.03 29 1021.0
20260904230324 27 178 8.0 11.3 0.00 0.00 0.03 29 1021.0
20260904225822 27 152 11.3 14.5 0.00 0.00 0.03 29 1021.0
20260904225322 27 179 8.0 9.7 0.00 0.00 0.03 29 1021.0
20260904224823 27 187 8.0 14.5 0.00 0.00 0.03 29 1021.0
20260904224323 27 175 8.0 9.7 0.00 0.00 0.03 29 1021.0
20260904223822 27 152 12.9 16.1 0.00 0.00 0.03 29 1021.0
20260904223322 28 166 11.3 14.5 0.00 0.00 0.03 28 1021.0
20260904222822 28 160 9.7 11.3 0.00 0.00 0.03 28 1021.0
20260904222323 28 162 12.9 17.7 0.00 0.00 0.03 28 1021.0
20260904221824 28 123 1.6 3.2 0.00 0.00 0.03 27 1021.0
20260904221322 28 149 8.0 11.3 0.00 0.00 0.03 28 1021.0
20260904220823 28 200 6.4 9.7 0.00 0.00 0.03 29 1021.0
20260904220323 28 199 0.0 3.2 0.00 0.00 0.00 28 1021.0
20260904215822 28 56 1.6 3.2 0.00 0.00 0.00 27 1021.0
20260904215322 28 68 1.6 4.8 0.00 0.00 0.00 28 1021.0
20260904214824 28 116 3.2 6.4 0.00 0.00 0.00 26 1021.0
20260904214322 28 114 4.8 8.0 0.00 0.00 0.00 25 1021.0
20260904213822 28 70 3.2 3.2 0.00 0.00 0.00 26 1021.0
20260904213322 28 125 6.4 9.7 0.00 0.00 0.00 25 1021.0
20260904212823 28 124 3.2 6.4 0.00 0.00 0.00 26 1021.0
20260904212322 28 126 8.0 12.9 0.00 0.00 0.00 26 1021.0
20260904211822 28 109 3.2 6.4 0.00 0.00 0.00 26 1021.0
20260904211324 28 131 3.2 6.4 0.00 0.00 0.00 27 1021.0
20260904210822 29 160 3.2 4.8 0.00 0.00 0.00 25 1021.0
20260904210323 29 142 3.2 6.4 0.00 0.00 0.00 25 1021.0
20260904205827 29 171 3.2 4.8 0.00 0.00 0.00 26 1021.0
20260904205322 28 85 0.0 3.2 0.00 0.00 0.00 25 1021.0
20260904204823 28 170 0.0 3.2 0.00 0.00 0.00 25 1022.0
20260904204322 28 150 8.0 11.3 0.00 0.00 0.00 26 1022.0
20260904203822 28 168 6.4 8.0 0.00 0.00 0.00 27 1022.0
20260904203322 28 155 9.7 14.5 0.00 0.00 0.00 26 1022.0
20260904202823 28 222 8.0 12.9 0.00 0.00 0.00 26 1022.0
20260904202322 28 167 4.8 8.0 0.00 0.00 0.00 26 1022.0
20260904201822 28 231 8.0 9.7 0.00 0.00 0.00 26 1022.0
20260904201322 28 160 8.0 14.5 0.00 0.00 0.00 25 1022.0
20260904200823 28 143 0.0 3.2 0.00 0.00 0.00 26 1022.0
20260904200323 29 144 8.0 9.7 0.00 0.00 0.00 25 1022.0